Вернуться в каталог

ATLAS 5 CENTAUR DEB

LostHEO
NORAD 44004·DEBRIS·🇺🇸 United States

Запущен Sep 17, 2014 с Cape Canaveral Space Force Station

Loading…

Ближайшие Пролёты (ближайшие 24 часа)

TLE

УстаревшееSource: Space-Track

Эпоха: Mar 6, 2021, 22:00 UTC

1 44004U 14055BK  21065.91709176 -.00000164  00000-0  00000+0 0  9992
2 44004  21.7227 314.5348 4840963 225.9353  82.2483  1.94624874 17679

Отслеживайте ATLAS 5 CENTAUR DEB в реальном времени с AllMySat

Download on the App Store